START_TIME,STEP,MOV.,M29,t_acc.,H22,t_acc.,H26,t_acc.,H30,t_acc.
1979-07-02 15:00:32.780 ,1,0,0.,24.0,0.,24.0,0.,24.0,0.,24.0
1979-07-02 15:00:56.780 ,2,1,0.,24.0,0.,24.0,0.,24.0,0.,24.0
1979-07-02 15:01:20.780 ,2,0,0.,24.0,0.,24.0,0.,24.0,0.,24.0
1979-07-02 15:01:44.780 ,3,1,0.,24.0,0.,24.0,0.,24.0,0.,24.0
1979-07-02 15:02:08.780 ,3,0,0.,24.0,0.,24.0,0.,24.0,0.,24.0
1979-07-02 15:02:32.780 ,4,1,0.,24.0,0.,24.0,0.,24.0,0.,24.0
1979-07-02 15:02:56.780 ,4,0,0.,24.0,0.,24.0,0.,24.0,0.,24.0
1979-07-02 15:03:20.780 ,5,1,0.,24.0,0.,24.0,0.,24.0,0.,24.0
1979-07-02 15:03:44.780 ,5,0,0.,24.0,0.,24.0,0.,24.0,0.,24.0
1979-07-02 15:04:08.780 ,6,1,0.,24.0,0.,24.0,0.,24.0,0.,24.0
1979-07-02 15:04:32.780 ,6,0,0.,24.0,0.,24.0,0.,24.0,0.,24.0
1979-07-02 15:04:56.780 ,7,1,0.,24.0,0.,24.0,0.,24.0,0.,24.0
1979-07-02 15:05:20.780 ,7,0,0.,24.0,0.,24.0,0.,24.0,0.,24.0
1979-07-02 15:05:44.780 ,7,1,0.,24.0,0.,24.0,0.,24.0,0.,24.0
1979-07-02 15:06:08.780 ,7,0,0.,24.0,0.,24.0,0.,24.0,0.,24.0
1979-07-02 15:06:32.780 ,6,1,0.,24.0,0.,24.0,0.,24.0,0.,24.0
1979-07-02 15:06:56.780 ,6,0,0.,24.0,0.,24.0,0.,24.0,0.,24.0
1979-07-02 15:07:20.780 ,5,1,0.,24.0,0.,24.0,0.,24.0,0.,24.0
1979-07-02 15:07:44.780 ,5,0,0.,24.0,0.,24.0,0.,24.0,0.,24.0
1979-07-02 15:08:08.780 ,4,1,0.,24.0,0.,24.0,0.,24.0,0.,24.0
1979-07-02 15:08:32.780 ,4,0,0.,24.0,0.,24.0,0.,24.0,0.,24.0
1979-07-02 15:08:56.780 ,3,1,0.,24.0,0.,24.0,0.,24.0,0.,24.0
1979-07-02 15:09:20.780 ,3,0,0.,24.0,0.,24.0,0.,24.0,0.,24.0
1979-07-02 15:09:44.780 ,2,1,0.,24.0,0.,24.0,0.,24.0,0.,24.0
1979-07-02 15:10:08.780 ,2,0,0.,24.0,0.,24.0,0.,24.0,0.,24.0
1979-07-02 15:10:32.780 ,1,1,0.,24.0,0.,24.0,0.,24.0,0.,24.0
1979-07-02 15:10:56.780 ,1,0,0.,24.0,0.,24.0,0.,24.0,0.,24.0
1979-07-02 15:11:20.780 ,0,1,1.,24.0,0.,24.0,0.,24.0,0.,24.0
1979-07-02 15:11:44.780 ,0,0,0.,24.0,0.,24.0,0.,24.0,0.,24.0
1979-07-02 15:12:08.780 ,0,1,0.,24.0,0.,24.0,0.,24.0,0.,24.0
1979-07-02 15:12:32.780 ,0,0,0.,24.0,0.,24.0,0.,24.0,0.,24.0
1979-07-02 15:12:56.780 ,1,1,0.,24.0,0.,24.0,0.,24.0,0.,24.0
1979-07-02 15:13:20.780 ,1,0,0.,24.0,0.,24.0,0.,24.0,0.,24.0
1979-07-02 15:13:44.780 ,2,1,0.,24.0,0.,24.0,0.,24.0,0.,24.0
1979-07-02 15:14:08.780 ,2,0,0.,24.0,0.,24.0,0.,24.0,0.,24.0
1979-07-02 15:14:32.780 ,3,1,0.,24.0,0.,24.0,0.,24.0,0.,24.0
1979-07-02 15:14:56.780 ,3,0,0.,24.0,0.,24.0,0.,24.0,0.,24.0
1979-07-02 15:15:20.780 ,4,1,0.,24.0,0.,24.0,0.,24.0,0.,24.0
1979-07-02 15:15:44.780 ,4,0,0.,24.0,0.,24.0,0.,24.0,0.,24.0
1979-07-02 15:16:08.780 ,5,1,0.,24.0,0.,24.0,0.,24.0,0.,24.0
1979-07-02 15:16:32.780 ,5,0,0.,24.0,0.,24.0,0.,24.0,0.,24.0
1979-07-02 15:16:56.780 ,6,1,0.,24.0,0.,24.0,0.,24.0,0.,24.0
1979-07-02 15:17:20.780 ,6,0,0.,24.0,0.,24.0,0.,24.0,0.,24.0
1979-07-02 15:17:44.780 ,7,1,0.,24.0,0.,24.0,0.,24.0,0.,24.0
1979-07-02 15:18:08.780 ,7,0,0.,24.0,0.,24.0,0.,24.0,0.,24.0
1979-07-02 15:18:32.780 ,7,1,0.,24.0,0.,24.0,0.,24.0,0.,24.0
1979-07-02 15:18:56.780 ,7,0,0.,24.0,0.,24.0,0.,24.0,0.,24.0
1979-07-02 15:19:20.780 ,6,1,0.,24.0,0.,24.0,0.,24.0,0.,24.0
1979-07-02 15:19:44.780 ,6,0,0.,24.0,0.,24.0,0.,24.0,0.,24.0
1979-07-02 15:20:08.780 ,5,1,0.,24.0,0.,24.0,0.,24.0,0.,24.0
1979-07-02 15:20:32.780 ,5,0,0.,24.0,0.,24.0,0.,24.0,0.,24.0
1979-07-02 15:20:56.780 ,4,1,0.,24.0,0.,24.0,0.,24.0,0.,24.0
1979-07-02 15:21:20.780 ,4,0,0.,24.0,0.,24.0,0.,24.0,0.,24.0
1979-07-02 15:21:44.780 ,3,1,0.,24.0,0.,24.0,0.,24.0,0.,24.0
1979-07-02 15:22:08.780 ,3,0,0.,24.0,0.,24.0,0.,24.0,0.,24.0
1979-07-02 15:22:32.780 ,2,1,0.,24.0,0.,24.0,0.,24.0,0.,24.0
1979-07-02 15:22:56.780 ,2,0,0.,24.0,0.,24.0,0.,24.0,0.,24.0
1979-07-02 15:23:20.780 ,1,1,0.,24.0,0.,24.0,0.,24.0,0.,24.0
1979-07-02 15:23:44.780 ,1,0,0.,24.0,0.,24.0,0.,24.0,0.,24.0
1979-07-02 15:24:08.780 ,0,1,0.,24.0,0.,24.0,0.,24.0,0.,24.0
1979-07-02 15:24:32.780 ,0,0,0.,24.0,0.,24.0,0.,24.0,0.,24.0
1979-07-02 15:24:56.780 ,0,1,0.,24.0,0.,24.0,0.,24.0,0.,24.0
1979-07-02 15:25:20.780 ,0,0,0.,24.0,0.,24.0,0.,24.0,0.,24.0
1979-07-02 15:25:44.780 ,1,1,0.,24.0,0.,24.0,0.,24.0,0.,24.0
1979-07-02 15:26:08.780 ,1,0,0.,24.0,0.,24.0,0.,24.0,0.,24.0
1979-07-02 15:26:32.780 ,2,1,0.,24.0,0.,24.0,0.,24.0,0.,24.0
1979-07-02 15:26:56.780 ,2,0,0.,24.0,0.,24.0,0.,24.0,0.,24.0
1979-07-02 15:27:20.780 ,3,1,0.,24.0,0.,24.0,0.,24.0,0.,24.0
1979-07-02 15:27:44.780 ,3,0,0.,24.0,0.,24.0,0.,24.0,0.,24.0
1979-07-02 15:28:08.780 ,4,1,0.,24.0,0.,24.0,0.,24.0,0.,24.0
1979-07-02 15:28:32.780 ,4,0,0.,24.0,0.,24.0,0.,24.0,0.,24.0
1979-07-02 15:28:56.780 ,5,1,0.,24.0,0.,24.0,0.,24.0,0.,24.0
1979-07-02 15:29:20.780 ,5,0,0.,24.0,0.,24.0,0.,24.0,0.,24.0
1979-07-02 15:29:44.780 ,6,1,0.,24.0,0.,24.0,0.,24.0,0.,24.0
1979-07-02 15:30:08.780 ,6,0,0.,24.0,0.,24.0,0.,24.0,0.,24.0
1979-07-02 15:30:32.780 ,7,0,0.,24.0,0.,24.0,0.,24.0,0.,24.0
1979-07-02 15:30:56.780 ,7,0,0.,24.0,0.,24.0,0.,24.0,0.,24.0
1979-07-02 15:31:20.780 ,5,1,0.,24.0,0.,24.0,0.,24.0,0.,24.0
1979-07-02 15:31:44.780 ,1,1,0.,24.0,0.,24.0,0.,24.0,0.,24.0
1979-07-02 15:32:08.780 ,2,1,0.,24.0,0.,24.0,0.,24.0,0.,24.0
1979-07-02 15:32:32.780 ,6,1,0.,24.0,0.,24.0,0.,24.0,0.,24.0
1979-07-02 15:32:56.780 ,5,1,0.,24.0,0.,24.0,0.,24.0,0.,24.0
1979-07-02 15:33:20.780 ,1,1,0.,24.0,0.,24.0,0.,24.0,0.,24.0
1979-07-02 15:33:44.780 ,2,1,0.,24.0,0.,24.0,0.,24.0,0.,24.0
1979-07-02 15:34:08.780 ,6,1,0.,24.0,0.,24.0,0.,24.0,0.,24.0
1979-07-02 15:34:32.780 ,5,1,0.,24.0,0.,24.0,0.,24.0,0.,24.0
1979-07-02 15:34:56.780 ,1,1,0.,24.0,0.,24.0,0.,24.0,0.,24.0
1979-07-02 15:35:20.780 ,2,1,0.,24.0,0.,24.0,0.,24.0,0.,24.0
1979-07-02 15:35:44.780 ,6,1,0.,24.0,0.,24.0,0.,24.0,0.,24.0
1979-07-02 15:36:08.780 ,5,1,0.,24.0,0.,24.0,0.,24.0,0.,24.0
1979-07-02 15:36:32.780 ,1,1,0.,24.0,0.,24.0,0.,24.0,0.,24.0
1979-07-02 15:36:56.780 ,2,1,0.,24.0,0.,24.0,0.,24.0,0.,24.0
1979-07-02 15:37:20.780 ,6,1,0.,24.0,0.,24.0,0.,24.0,0.,24.0
1979-07-02 15:37:44.780 ,5,1,0.,24.0,0.,24.0,0.,24.0,0.,24.0
1979-07-02 15:38:08.780 ,1,1,0.,24.0,0.,24.0,0.,24.0,0.,24.0
1979-07-02 15:38:32.780 ,2,1,0.,24.0,0.,24.0,0.,24.0,0.,24.0
1979-07-02 15:38:56.780 ,6,1,0.,24.0,0.,24.0,0.,24.0,0.,24.0
1979-07-02 15:39:20.780 ,5,1,0.,24.0,0.,24.0,0.,24.0,0.,24.0
1979-07-02 15:39:44.780 ,1,1,0.,24.0,0.,24.0,0.,24.0,0.,24.0
1979-07-02 15:40:08.780 ,2,1,0.,24.0,0.,24.0,0.,24.0,0.,24.0
1979-07-02 15:40:32.780 ,6,1,0.,24.0,0.,24.0,0.,24.0,0.,24.0
1979-07-02 15:40:56.780 ,5,1,0.,24.0,0.,24.0,0.,24.0,0.,24.0
1979-07-02 15:41:20.780 ,1,1,0.,24.0,0.,24.0,0.,24.0,0.,24.0
1979-07-02 15:41:44.780 ,0,0,0.,24.0,0.,24.0,0.,24.0,0.,24.0
1979-07-02 15:42:08.780 ,0,0,0.,24.0,0.,24.0,0.,24.0,0.,24.0
1979-07-02 15:42:32.780 ,5,1,0.,24.0,0.,24.0,0.,24.0,0.,24.0
1979-07-02 15:42:56.780 ,5,0,0.,24.0,0.,24.0,0.,24.0,0.,24.0
1979-07-02 15:43:20.780 ,4,1,0.,24.0,0.,24.0,0.,24.0,0.,24.0
1979-07-02 15:43:44.780 ,4,0,0.,24.0,0.,24.0,0.,24.0,0.,24.0
1979-07-02 15:44:08.780 ,3,1,0.,24.0,0.,24.0,0.,24.0,0.,24.0
1979-07-02 15:44:32.780 ,3,0,0.,24.0,0.,24.0,0.,24.0,0.,24.0
1979-07-02 15:44:56.780 ,2,1,0.,24.0,0.,24.0,0.,24.0,0.,24.0
1979-07-02 15:45:20.780 ,2,0,0.,24.0,0.,24.0,0.,24.0,0.,24.0
1979-07-02 15:45:44.780 ,1,1,0.,24.0,0.,24.0,0.,24.0,0.,24.0
1979-07-02 15:46:08.780 ,1,0,0.,24.0,0.,24.0,0.,24.0,0.,24.0
1979-07-02 15:46:32.780 ,0,1,0.,24.0,0.,24.0,0.,24.0,0.,24.0
1979-07-02 15:46:56.780 ,0,0,0.,24.0,0.,24.0,0.,24.0,0.,24.0
1979-07-02 15:47:20.780 ,0,1,0.,24.0,0.,24.0,0.,24.0,0.,24.0
1979-07-02 15:47:44.780 ,0,0,0.,24.0,0.,24.0,0.,24.0,0.,24.0
1979-07-02 15:48:08.780 ,1,1,0.,24.0,0.,24.0,0.,24.0,0.,24.0
1979-07-02 15:48:32.780 ,1,0,0.,24.0,0.,24.0,0.,24.0,0.,24.0
1979-07-02 15:48:56.780 ,2,1,0.,24.0,0.,24.0,0.,24.0,0.,24.0
1979-07-02 15:49:20.780 ,2,0,0.,24.0,0.,24.0,0.,24.0,0.,24.0
1979-07-02 15:49:44.780 ,3,1,1.,24.0,0.,24.0,0.,24.0,0.,24.0
1979-07-02 15:50:08.780 ,3,0,0.,24.0,0.,24.0,0.,24.0,0.,24.0
1979-07-02 15:50:32.780 ,4,1,0.,24.0,0.,24.0,0.,24.0,0.,24.0
1979-07-02 15:50:56.780 ,4,0,0.,24.0,0.,24.0,0.,24.0,0.,24.0
1979-07-02 15:51:20.780 ,5,1,0.,24.0,0.,24.0,0.,24.0,0.,24.0
1979-07-02 15:51:44.780 ,5,0,0.,24.0,0.,24.0,0.,24.0,0.,24.0
1979-07-02 15:52:08.780 ,6,1,0.,24.0,0.,24.0,0.,24.0,0.,24.0
1979-07-02 15:52:32.780 ,6,0,0.,24.0,0.,24.0,0.,24.0,0.,24.0
1979-07-02 15:52:56.780 ,7,1,0.,24.0,0.,24.0,0.,24.0,0.,24.0
1979-07-02 15:53:20.780 ,7,0,0.,24.0,0.,24.0,0.,24.0,0.,24.0
1979-07-02 15:53:44.780 ,7,1,0.,24.0,0.,24.0,0.,24.0,0.,24.0
1979-07-02 15:54:08.780 ,7,0,0.,24.0,0.,24.0,0.,24.0,0.,24.0
1979-07-02 15:54:32.780 ,6,1,0.,24.0,0.,24.0,0.,24.0,0.,24.0
1979-07-02 15:54:56.780 ,6,0,0.,24.0,0.,24.0,0.,24.0,0.,24.0
1979-07-02 15:55:20.780 ,5,1,0.,24.0,0.,24.0,0.,24.0,0.,24.0
1979-07-02 15:55:44.780 ,5,0,0.,24.0,0.,24.0,0.,24.0,0.,24.0
1979-07-02 15:56:08.780 ,4,1,0.,24.0,0.,24.0,0.,24.0,0.,24.0
1979-07-02 15:56:32.780 ,4,0,0.,24.0,0.,24.0,0.,24.0,0.,24.0
1979-07-02 15:56:56.780 ,3,1,0.,24.0,0.,24.0,0.,24.0,0.,24.0
1979-07-02 15:57:20.780 ,3,0,0.,24.0,0.,24.0,0.,24.0,0.,24.0
1979-07-02 15:57:44.780 ,2,1,0.,24.0,0.,24.0,0.,24.0,0.,24.0
1979-07-02 15:58:08.780 ,2,0,0.,24.0,0.,24.0,0.,24.0,0.,24.0
1979-07-02 15:58:32.780 ,1,1,0.,24.0,0.,24.0,0.,24.0,0.,24.0
1979-07-02 15:58:56.780 ,1,0,0.,24.0,0.,24.0,0.,24.0,0.,24.0
1979-07-02 15:59:20.780 ,0,1,0.,24.0,0.,24.0,0.,24.0,0.,24.0
1979-07-02 15:59:44.780 ,0,0,0.,24.0,0.,24.0,0.,24.0,0.,24.0
1979-07-02 16:00:08.780 ,0,1,0.,24.0,0.,24.0,0.,24.0,0.,24.0
1979-07-02 16:00:32.780 ,0,0,1.,24.0,0.,24.0,0.,24.0,0.,24.0
1979-07-02 16:00:56.780 ,1,1,0.,24.0,0.,24.0,0.,24.0,0.,24.0
1979-07-02 16:01:20.780 ,1,0,1.,24.0,0.,24.0,0.,24.0,0.,24.0
1979-07-02 16:01:44.780 ,2,1,0.,24.0,0.,24.0,0.,24.0,0.,24.0
1979-07-02 16:02:08.780 ,2,0,0.,24.0,0.,24.0,0.,24.0,0.,24.0
1979-07-02 16:02:32.780 ,3,1,0.,24.0,0.,24.0,0.,24.0,0.,24.0
1979-07-02 16:02:56.780 ,3,0,0.,24.0,0.,24.0,0.,24.0,0.,24.0
1979-07-02 16:03:20.780 ,4,1,0.,24.0,0.,24.0,0.,24.0,0.,24.0
1979-07-02 16:03:44.780 ,4,0,0.,24.0,0.,24.0,0.,24.0,0.,24.0
1979-07-02 16:04:08.780 ,5,1,0.,24.0,0.,24.0,0.,24.0,0.,24.0
1979-07-02 16:04:32.780 ,5,0,0.,24.0,0.,24.0,0.,24.0,0.,24.0
1979-07-02 16:04:56.780 ,6,1,0.,24.0,0.,24.0,0.,24.0,0.,24.0
1979-07-02 16:05:20.780 ,6,0,0.,24.0,0.,24.0,0.,24.0,0.,24.0
1979-07-02 16:05:44.780 ,7,1,0.,24.0,0.,24.0,0.,24.0,0.,24.0
1979-07-02 16:06:08.780 ,7,0,0.,24.0,0.,24.0,0.,24.0,0.,24.0
1979-07-02 16:06:32.780 ,7,1,0.,24.0,0.,24.0,0.,24.0,0.,24.0
1979-07-02 16:06:56.780 ,7,0,0.,24.0,0.,24.0,0.,24.0,0.,24.0
1979-07-02 16:07:20.780 ,6,1,0.,24.0,0.,24.0,0.,24.0,0.,24.0
1979-07-02 16:07:44.780 ,6,0,0.,24.0,0.,24.0,0.,24.0,0.,24.0
1979-07-02 16:08:08.780 ,5,1,0.,24.0,0.,24.0,0.,24.0,0.,24.0
1979-07-02 16:08:32.780 ,5,0,0.,24.0,0.,24.0,0.,24.0,0.,24.0
1979-07-02 16:08:56.780 ,4,1,0.,24.0,0.,24.0,0.,24.0,0.,24.0
1979-07-02 16:09:20.780 ,4,0,0.,24.0,0.,24.0,0.,24.0,0.,24.0
1979-07-02 16:09:44.780 ,3,1,0.,24.0,0.,24.0,0.,24.0,0.,24.0
1979-07-02 16:10:08.780 ,3,0,0.,24.0,0.,24.0,0.,24.0,0.,24.0
1979-07-02 16:10:32.780 ,2,1,0.,24.0,0.,24.0,0.,24.0,0.,24.0
1979-07-02 16:10:56.780 ,2,0,0.,24.0,0.,24.0,0.,24.0,0.,24.0
1979-07-02 16:11:20.780 ,1,1,0.,24.0,0.,24.0,0.,24.0,0.,24.0
1979-07-02 16:11:44.780 ,1,0,0.,24.0,0.,24.0,0.,24.0,0.,24.0
1979-07-02 16:12:08.780 ,0,1,0.,24.0,0.,24.0,0.,24.0,0.,24.0
1979-07-02 16:12:32.780 ,0,0,0.,24.0,0.,24.0,0.,24.0,0.,24.0
1979-07-02 16:12:56.780 ,0,1,0.,24.0,0.,24.0,0.,24.0,0.,24.0
1979-07-02 16:13:20.780 ,0,0,0.,24.0,0.,24.0,0.,24.0,0.,24.0
1979-07-02 16:13:44.780 ,1,1,0.,24.0,0.,24.0,0.,24.0,0.,24.0
1979-07-02 16:14:08.780 ,1,0,0.,24.0,0.,24.0,0.,24.0,0.,24.0
1979-07-02 16:14:32.780 ,2,1,0.,24.0,0.,24.0,0.,24.0,0.,24.0
1979-07-02 16:14:56.780 ,2,0,0.,24.0,0.,24.0,0.,24.0,0.,24.0
1979-07-02 16:15:20.780 ,3,1,0.,24.0,0.,24.0,0.,24.0,0.,24.0
1979-07-02 16:15:44.780 ,3,0,0.,24.0,0.,24.0,0.,24.0,0.,24.0
1979-07-02 16:16:08.780 ,4,1,0.,24.0,0.,24.0,0.,24.0,0.,24.0
1979-07-02 16:16:32.780 ,4,0,1.,24.0,0.,24.0,0.,24.0,0.,24.0
1979-07-02 16:16:56.780 ,5,1,1.,24.0,0.,24.0,0.,24.0,0.,24.0
1979-07-02 16:17:20.780 ,5,0,0.,24.0,0.,24.0,0.,24.0,0.,24.0
1979-07-02 16:17:44.780 ,6,1,0.,24.0,0.,24.0,0.,24.0,0.,24.0
1979-07-02 16:18:08.780 ,6,0,0.,24.0,0.,24.0,0.,24.0,0.,24.0
1979-07-02 16:18:32.780 ,7,0,0.,24.0,0.,24.0,0.,24.0,0.,24.0
1979-07-02 16:18:56.780 ,7,0,0.,24.0,0.,24.0,0.,24.0,0.,24.0
1979-07-02 16:19:20.780 ,5,1,0.,24.0,0.,24.0,0.,24.0,0.,24.0
1979-07-02 16:19:44.780 ,1,1,0.,24.0,0.,24.0,0.,24.0,0.,24.0
1979-07-02 16:20:08.780 ,2,1,0.,24.0,0.,24.0,0.,24.0,0.,24.0
1979-07-02 16:20:32.780 ,6,1,0.,24.0,0.,24.0,0.,24.0,0.,24.0
1979-07-02 16:20:56.780 ,5,1,0.,24.0,0.,24.0,0.,24.0,0.,24.0
1979-07-02 16:21:20.780 ,1,1,0.,24.0,0.,24.0,0.,24.0,0.,24.0
1979-07-02 16:21:44.780 ,2,1,0.,24.0,0.,24.0,0.,24.0,0.,24.0
1979-07-02 16:22:08.780 ,6,1,0.,24.0,0.,24.0,0.,24.0,0.,24.0
1979-07-02 16:22:32.780 ,5,1,0.,24.0,0.,24.0,0.,24.0,0.,24.0
1979-07-02 16:22:56.780 ,1,1,0.,24.0,0.,24.0,0.,24.0,0.,24.0
1979-07-02 16:23:20.780 ,2,1,0.,24.0,0.,24.0,0.,24.0,0.,24.0
1979-07-02 16:23:44.780 ,6,1,0.,24.0,0.,24.0,0.,24.0,0.,24.0
1979-07-02 16:24:08.780 ,0,0,0.,24.0,0.,24.0,0.,24.0,0.,24.0
1979-07-02 16:24:32.780 ,0,0,,0,,0,,0,,0
1979-07-02 16:24:56.780 ,0,0,0.,24.0,0.,24.0,0.,24.0,0.,24.0
1979-07-02 16:25:20.780 ,6,1,0.,24.0,0.,24.0,0.,24.0,0.,24.0
1979-07-02 16:25:44.780 ,5,1,0.,24.0,0.,24.0,0.,24.0,0.,24.0
1979-07-02 16:26:08.780 ,1,1,0.,24.0,0.,24.0,0.,24.0,0.,24.0
1979-07-02 16:26:32.780 ,2,1,0.,24.0,0.,24.0,0.,24.0,0.,24.0
1979-07-02 16:26:56.780 ,6,1,0.,24.0,0.,24.0,0.,24.0,0.,24.0
1979-07-02 16:27:20.780 ,5,1,0.,24.0,0.,24.0,0.,24.0,0.,24.0
1979-07-02 16:27:44.780 ,1,1,0.,24.0,0.,24.0,0.,24.0,0.,24.0
1979-07-02 16:28:08.780 ,2,1,0.,24.0,0.,24.0,0.,24.0,0.,24.0
1979-07-02 16:28:32.780 ,6,1,0.,24.0,0.,24.0,0.,24.0,0.,24.0
1979-07-02 16:28:56.780 ,5,1,0.,24.0,0.,24.0,0.,24.0,0.,24.0
1979-07-02 16:29:20.780 ,1,1,0.,24.0,0.,24.0,0.,24.0,0.,24.0
1979-07-02 16:29:44.780 ,0,0,0.,24.0,0.,24.0,0.,24.0,0.,24.0
1979-07-02 16:30:08.780 ,0,0,0.,24.0,0.,24.0,0.,24.0,0.,24.0
1979-07-02 16:30:32.780 ,5,1,0.,24.0,0.,24.0,0.,24.0,0.,24.0
1979-07-02 16:30:56.780 ,5,0,0.,24.0,0.,24.0,0.,24.0,0.,24.0
1979-07-02 16:31:20.780 ,4,1,0.,24.0,0.,24.0,0.,24.0,0.,24.0
1979-07-02 16:31:44.780 ,4,0,0.,24.0,0.,24.0,0.,24.0,0.,24.0
1979-07-02 16:32:08.780 ,3,1,0.,24.0,0.,24.0,0.,24.0,0.,24.0
1979-07-02 16:32:32.780 ,3,0,0.,24.0,0.,24.0,0.,24.0,0.,24.0
1979-07-02 16:32:56.780 ,2,1,0.,24.0,0.,24.0,0.,24.0,0.,24.0
1979-07-02 16:33:20.780 ,2,0,0.,24.0,0.,24.0,0.,24.0,0.,24.0
1979-07-02 16:33:44.780 ,1,1,0.,24.0,0.,24.0,0.,24.0,0.,24.0
1979-07-02 16:34:08.780 ,1,0,1.,24.0,0.,24.0,0.,24.0,0.,24.0
1979-07-02 16:34:32.780 ,0,1,0.,24.0,0.,24.0,0.,24.0,0.,24.0
1979-07-02 16:34:56.780 ,0,0,0.,24.0,0.,24.0,0.,24.0,0.,24.0
1979-07-02 16:35:20.780 ,0,1,0.,24.0,0.,24.0,0.,24.0,0.,24.0
1979-07-02 16:35:44.780 ,0,0,0.,24.0,0.,24.0,0.,24.0,0.,24.0
1979-07-02 16:36:08.780 ,1,1,0.,24.0,0.,24.0,0.,24.0,0.,24.0
1979-07-02 16:36:32.780 ,1,0,0.,24.0,0.,24.0,0.,24.0,0.,24.0
1979-07-02 16:36:56.780 ,2,1,0.,24.0,0.,24.0,0.,24.0,0.,24.0
1979-07-02 16:37:20.780 ,2,0,0.,24.0,0.,24.0,0.,24.0,0.,24.0
1979-07-02 16:37:44.780 ,3,1,0.,24.0,0.,24.0,0.,24.0,0.,24.0
1979-07-02 16:38:08.780 ,3,0,0.,24.0,0.,24.0,0.,24.0,0.,24.0
1979-07-02 16:38:32.780 ,4,1,0.,24.0,0.,24.0,0.,24.0,0.,24.0
1979-07-02 16:38:56.780 ,4,0,0.,24.0,0.,24.0,0.,24.0,0.,24.0
1979-07-02 16:39:20.780 ,5,1,0.,24.0,0.,24.0,0.,24.0,0.,24.0
1979-07-02 16:39:44.780 ,5,0,0.,24.0,0.,24.0,0.,24.0,0.,24.0
1979-07-02 16:40:08.780 ,6,1,0.,24.0,0.,24.0,0.,24.0,0.,24.0
1979-07-02 16:40:32.780 ,6,0,0.,24.0,0.,24.0,0.,24.0,0.,24.0
1979-07-02 16:40:56.780 ,7,1,0.,24.0,0.,24.0,0.,24.0,0.,24.0
1979-07-02 16:41:20.780 ,7,0,0.,24.0,0.,24.0,0.,24.0,0.,24.0
1979-07-02 16:41:44.780 ,7,1,0.,24.0,0.,24.0,0.,24.0,0.,24.0
1979-07-02 16:42:08.780 ,7,0,0.,24.0,0.,24.0,0.,24.0,0.,24.0
1979-07-02 16:42:32.780 ,6,1,1.,24.0,0.,24.0,0.,24.0,0.,24.0
1979-07-02 16:42:56.780 ,6,0,1.,24.0,0.,24.0,0.,24.0,0.,24.0
1979-07-02 16:43:20.780 ,5,1,0.,24.0,0.,24.0,0.,24.0,0.,24.0
1979-07-02 16:43:44.780 ,5,0,0.,24.0,0.,24.0,0.,24.0,0.,24.0
1979-07-02 16:44:08.780 ,4,1,0.,24.0,0.,24.0,0.,24.0,0.,24.0
1979-07-02 16:44:32.780 ,4,0,0.,24.0,0.,24.0,0.,24.0,0.,24.0
1979-07-02 16:44:56.780 ,3,1,0.,24.0,0.,24.0,0.,24.0,0.,24.0
1979-07-02 16:45:20.780 ,3,0,0.,24.0,0.,24.0,0.,24.0,0.,24.0
1979-07-02 16:45:44.780 ,2,1,0.,24.0,0.,24.0,0.,24.0,0.,24.0
1979-07-02 16:46:08.780 ,2,0,0.,24.0,0.,24.0,0.,24.0,0.,24.0
1979-07-02 16:46:32.780 ,1,1,0.,24.0,0.,24.0,0.,24.0,0.,24.0
1979-07-02 16:46:56.780 ,0,0,0.,24.0,0.,24.0,0.,24.0,0.,24.0
1979-07-02 17:05:02.180 ,0,0,0.,24.0,0.,24.0,0.,24.0,0.,24.0
1979-07-02 17:05:20.780 ,0,0,0.,24.0,0.,24.0,0.,24.0,0.,24.0
1979-07-02 17:05:44.780 ,6,1,0.,24.0,0.,24.0,0.,24.0,0.,24.0
1979-07-02 17:06:08.780 ,6,0,0.,24.0,0.,24.0,0.,24.0,0.,24.0
1979-07-02 17:06:32.780 ,7,0,0.,24.0,0.,24.0,0.,24.0,0.,24.0
1979-07-02 17:06:56.780 ,7,0,0.,24.0,0.,24.0,0.,24.0,0.,24.0
1979-07-02 17:07:20.780 ,5,1,0.,24.0,0.,24.0,0.,24.0,0.,24.0
1979-07-02 17:07:44.780 ,1,1,0.,24.0,0.,24.0,0.,24.0,0.,24.0
1979-07-02 17:08:08.780 ,2,1,1.,24.0,0.,24.0,0.,24.0,0.,24.0
1979-07-02 17:08:32.780 ,6,1,0.,24.0,0.,24.0,0.,24.0,0.,24.0
1979-07-02 17:08:56.780 ,5,1,0.,24.0,0.,24.0,0.,24.0,0.,24.0
1979-07-02 17:09:20.780 ,1,1,0.,24.0,0.,24.0,0.,24.0,0.,24.0
1979-07-02 17:09:44.780 ,2,1,0.,24.0,0.,24.0,0.,24.0,0.,24.0
1979-07-02 17:10:08.780 ,6,1,0.,24.0,0.,24.0,0.,24.0,0.,24.0
1979-07-02 17:10:32.780 ,5,1,1.,24.0,0.,24.0,0.,24.0,0.,24.0
1979-07-02 17:10:56.780 ,1,1,0.,24.0,0.,24.0,0.,24.0,0.,24.0
1979-07-02 17:11:20.780 ,2,1,0.,24.0,0.,24.0,0.,24.0,0.,24.0
1979-07-02 17:11:44.780 ,6,1,0.,24.0,0.,24.0,0.,24.0,0.,24.0
1979-07-02 17:12:08.780 ,5,1,0.,24.0,0.,24.0,0.,24.0,0.,24.0
1979-07-02 17:12:32.780 ,1,1,0.,24.0,0.,24.0,0.,24.0,0.,24.0
1979-07-02 17:12:56.780 ,2,1,0.,24.0,0.,24.0,0.,24.0,0.,24.0
1979-07-02 17:13:20.780 ,6,1,0.,24.0,0.,24.0,0.,24.0,0.,24.0
1979-07-02 17:13:44.780 ,5,1,0.,24.0,0.,24.0,0.,24.0,0.,24.0
1979-07-02 17:14:08.780 ,1,1,0.,24.0,0.,24.0,0.,24.0,0.,24.0
1979-07-02 17:14:32.780 ,2,1,0.,24.0,0.,24.0,0.,24.0,0.,24.0
1979-07-02 17:14:56.780 ,6,1,0.,24.0,0.,24.0,0.,24.0,0.,24.0
1979-07-02 17:15:20.780 ,5,1,0.,24.0,0.,24.0,0.,24.0,0.,24.0
1979-07-02 17:15:44.780 ,1,1,0.,24.0,0.,24.0,0.,24.0,0.,24.0
1979-07-02 17:16:08.780 ,2,1,0.,24.0,0.,24.0,0.,24.0,0.,24.0
1979-07-02 17:16:32.780 ,6,1,0.,24.0,0.,24.0,0.,24.0,0.,24.0
1979-07-02 17:16:56.780 ,5,1,0.,24.0,0.,24.0,0.,24.0,0.,24.0
1979-07-02 17:17:20.780 ,1,1,1.,24.0,0.,24.0,0.,24.0,0.,24.0
1979-07-02 17:17:44.780 ,0,0,0.,24.0,0.,24.0,0.,24.0,0.,24.0
1979-07-02 17:18:08.780 ,0,0,0.,24.0,0.,24.0,0.,24.0,0.,24.0
1979-07-02 17:18:32.780 ,5,1,0.,24.0,0.,24.0,0.,24.0,0.,24.0
1979-07-02 17:18:56.780 ,5,0,0.,24.0,0.,24.0,0.,24.0,0.,24.0
1979-07-02 17:19:20.780 ,4,1,0.,24.0,0.,24.0,0.,24.0,0.,24.0
1979-07-02 17:19:44.780 ,4,0,0.,24.0,0.,24.0,0.,24.0,0.,24.0
1979-07-02 17:20:08.780 ,3,1,0.,24.0,0.,24.0,0.,24.0,0.,24.0
1979-07-02 17:20:32.780 ,3,0,0.,24.0,0.,24.0,0.,24.0,0.,24.0
1979-07-02 17:20:56.780 ,2,1,1.,24.0,0.,24.0,0.,24.0,0.,24.0
1979-07-02 17:21:20.780 ,2,0,0.,24.0,0.,24.0,0.,24.0,0.,24.0
1979-07-02 17:21:44.780 ,1,1,0.,24.0,0.,24.0,0.,24.0,0.,24.0
1979-07-02 17:22:08.780 ,1,0,0.,24.0,0.,24.0,0.,24.0,0.,24.0
1979-07-02 17:22:32.780 ,0,1,0.,24.0,0.,24.0,0.,24.0,0.,24.0
1979-07-02 17:22:56.780 ,0,0,0.,24.0,0.,24.0,0.,24.0,0.,24.0
1979-07-02 17:23:20.780 ,0,1,0.,24.0,0.,24.0,0.,24.0,0.,24.0
1979-07-02 17:23:44.780 ,0,0,0.,24.0,0.,24.0,0.,24.0,0.,24.0
1979-07-02 17:24:08.780 ,1,1,1.,24.0,0.,24.0,0.,24.0,0.,24.0
1979-07-02 17:24:32.780 ,1,0,0.,24.0,0.,24.0,0.,24.0,0.,24.0
1979-07-02 17:24:56.780 ,2,1,0.,24.0,0.,24.0,0.,24.0,0.,24.0
1979-07-02 17:25:20.780 ,2,0,0.,24.0,0.,24.0,0.,24.0,0.,24.0
1979-07-02 17:25:44.780 ,3,1,0.,24.0,0.,24.0,0.,24.0,0.,24.0
1979-07-02 17:26:08.780 ,3,0,0.,24.0,0.,24.0,0.,24.0,0.,24.0
1979-07-02 17:26:32.780 ,4,1,0.,24.0,0.,24.0,0.,24.0,0.,24.0
1979-07-02 17:26:56.780 ,4,0,0.,24.0,0.,24.0,0.,24.0,0.,24.0
1979-07-02 17:27:20.780 ,5,1,0.,24.0,0.,24.0,0.,24.0,0.,24.0
1979-07-02 17:27:44.780 ,5,0,0.,24.0,0.,24.0,0.,24.0,0.,24.0
1979-07-02 17:28:08.780 ,6,1,0.,24.0,0.,24.0,0.,24.0,0.,24.0
1979-07-02 17:28:32.780 ,6,0,0.,24.0,0.,24.0,0.,24.0,0.,24.0
1979-07-02 17:28:56.780 ,7,1,0.,24.0,0.,24.0,0.,24.0,0.,24.0
1979-07-02 17:29:20.780 ,7,0,0.,24.0,0.,24.0,0.,24.0,0.,24.0
1979-07-02 17:29:44.780 ,7,1,0.,24.0,0.,24.0,0.,24.0,0.,24.0
1979-07-02 17:30:08.780 ,7,0,0.,24.0,0.,24.0,0.,24.0,0.,24.0
1979-07-02 17:30:32.770 ,6,1,0.,24.0,0.,24.0,0.,24.0,0.,24.0
1979-07-02 17:30:56.770 ,6,0,0.,24.0,0.,24.0,0.,24.0,0.,24.0
1979-07-02 17:31:20.770 ,5,1,0.,24.0,0.,24.0,0.,24.0,0.,24.0
1979-07-02 17:31:44.770 ,5,0,0.,24.0,0.,24.0,0.,24.0,0.,24.0
1979-07-02 17:32:08.770 ,4,1,0.,24.0,0.,24.0,0.,24.0,0.,24.0
1979-07-02 17:32:32.770 ,4,0,0.,24.0,0.,24.0,0.,24.0,0.,24.0
1979-07-02 17:32:56.770 ,3,1,0.,24.0,0.,24.0,0.,24.0,0.,24.0
1979-07-02 17:33:20.770 ,3,0,0.,24.0,0.,24.0,0.,24.0,0.,24.0
1979-07-02 17:33:44.770 ,2,1,0.,24.0,0.,24.0,0.,24.0,0.,24.0
1979-07-02 17:34:08.770 ,2,0,0.,24.0,0.,24.0,0.,24.0,0.,24.0
1979-07-02 17:34:32.770 ,1,1,0.,24.0,0.,24.0,0.,24.0,0.,24.0
1979-07-02 17:34:56.770 ,1,0,0.,24.0,0.,24.0,0.,24.0,0.,24.0
1979-07-02 17:35:20.770 ,0,1,0.,24.0,0.,24.0,0.,24.0,0.,24.0
1979-07-02 17:35:44.770 ,0,0,0.,24.0,0.,24.0,0.,24.0,0.,24.0
1979-07-02 17:36:08.770 ,0,1,0.,24.0,0.,24.0,0.,24.0,0.,24.0
1979-07-02 17:36:32.770 ,0,0,0.,24.0,0.,24.0,0.,24.0,0.,24.0
1979-07-02 17:36:56.770 ,1,1,0.,24.0,0.,24.0,0.,24.0,0.,24.0
1979-07-02 17:37:20.770 ,1,0,0.,24.0,0.,24.0,0.,24.0,0.,24.0
1979-07-02 17:37:44.770 ,2,1,0.,24.0,0.,24.0,0.,24.0,0.,24.0
1979-07-02 17:38:08.770 ,2,0,0.,24.0,0.,24.0,0.,24.0,0.,24.0
1979-07-02 17:38:32.770 ,3,1,0.,24.0,0.,24.0,0.,24.0,0.,24.0
1979-07-02 17:38:56.770 ,3,0,0.,24.0,0.,24.0,0.,24.0,0.,24.0
1979-07-02 17:39:20.770 ,4,1,0.,24.0,0.,24.0,0.,24.0,0.,24.0
1979-07-02 17:39:44.770 ,4,0,0.,24.0,0.,24.0,0.,24.0,0.,24.0
1979-07-02 17:40:08.770 ,5,1,0.,24.0,0.,24.0,0.,24.0,0.,24.0
1979-07-02 17:40:32.770 ,5,0,0.,24.0,0.,24.0,0.,24.0,0.,24.0
1979-07-02 17:40:56.770 ,6,1,0.,24.0,0.,24.0,0.,24.0,0.,24.0
1979-07-02 17:41:20.770 ,6,0,0.,24.0,0.,24.0,0.,24.0,0.,24.0
1979-07-02 17:41:44.770 ,7,1,0.,24.0,0.,24.0,0.,24.0,0.,24.0
1979-07-02 17:42:08.770 ,7,0,0.,24.0,0.,24.0,0.,24.0,0.,24.0
1979-07-02 17:42:32.770 ,7,1,0.,24.0,0.,24.0,0.,24.0,0.,24.0
1979-07-02 17:42:56.770 ,7,0,0.,24.0,0.,24.0,0.,24.0,0.,24.0
1979-07-02 17:43:20.770 ,6,1,0.,24.0,0.,24.0,0.,24.0,0.,24.0
1979-07-02 17:43:44.770 ,6,0,0.,24.0,0.,24.0,0.,24.0,0.,24.0
1979-07-02 17:44:08.770 ,5,1,0.,24.0,0.,24.0,0.,24.0,0.,24.0
1979-07-02 17:44:32.770 ,5,0,0.,24.0,0.,24.0,0.,24.0,0.,24.0
1979-07-02 17:44:56.770 ,4,1,0.,24.0,0.,24.0,0.,24.0,0.,24.0
1979-07-02 17:45:20.770 ,4,0,0.,24.0,0.,24.0,0.,24.0,0.,24.0
1979-07-02 17:45:44.770 ,3,1,0.,24.0,0.,24.0,0.,24.0,0.,24.0
1979-07-02 17:46:08.770 ,3,0,0.,24.0,0.,24.0,0.,24.0,0.,24.0
1979-07-02 17:46:32.770 ,2,1,0.,24.0,0.,24.0,0.,24.0,0.,24.0
1979-07-02 17:46:56.770 ,2,0,0.,24.0,0.,24.0,0.,24.0,0.,24.0
1979-07-02 17:47:20.770 ,1,1,0.,24.0,0.,24.0,0.,24.0,0.,24.0
1979-07-02 17:47:44.770 ,0,0,0.,24.0,0.,24.0,0.,24.0,0.,24.0
1979-07-02 17:48:08.770 ,0,1,0.,24.0,0.,24.0,0.,24.0,0.,24.0
1979-07-02 17:48:32.770 ,0,0,0.,24.0,0.,24.0,0.,24.0,0.,24.0
1979-07-02 17:48:56.770 ,0,1,0.,24.0,0.,24.0,0.,24.0,0.,24.0
1979-07-02 17:49:20.770 ,0,0,0.,24.0,0.,24.0,0.,24.0,0.,24.0
1979-07-02 17:49:44.770 ,1,1,0.,24.0,0.,24.0,0.,24.0,0.,24.0
1979-07-02 17:50:08.770 ,1,0,0.,24.0,0.,24.0,0.,24.0,0.,24.0
1979-07-02 17:50:32.770 ,2,1,0.,24.0,0.,24.0,0.,24.0,0.,24.0
1979-07-02 17:50:56.770 ,2,0,0.,24.0,0.,24.0,0.,24.0,0.,24.0
1979-07-02 17:51:20.770 ,3,1,0.,24.0,0.,24.0,0.,24.0,0.,24.0
1979-07-02 17:51:44.770 ,3,0,0.,24.0,0.,24.0,0.,24.0,0.,24.0
1979-07-02 17:52:08.770 ,4,1,0.,24.0,0.,24.0,0.,24.0,0.,24.0